Regional Weather Roundup
Issued by NWS

Home | Current Version | Previous Version | Graphics & Text | Print | Product List | Glossary On
Versions: 1 2 3 4 5 6 7 8 9 10 11 12 13 14 15 16 17 18 19 20 21 22 23 24 25 26 27 28 29 30 31 32 33 34 35 36 37 38 39 40 41 42 43 44 45 46 47 48 49 50
000
ASUS43 KMKX 281124
RWRWI

WISCONSIN REGIONAL WEATHER ROUNDUP
NATIONAL WEATHER SERVICE MILWAUKEE/SULLIVAN WI
600 AM CDT THU MAY 28 2015

NOTE: "FAIR" INDICATES FEW OR NO CLOUDS BELOW 12,000 FEET WITH NO
SIGNIFICANT WEATHER AND/OR OBSTRUCTIONS TO VISIBILITY.

WIZ001-002-006>008-014>016-023>028-281200-
NORTHWEST WISCONSIN

CITY           SKY/WX    TMP DP  RH WIND       PRES   REMARKS
SUPERIOR ARPT  PTCLDY    42  40  91 E12G17    30.14R
ASHLAND        MOCLDY    45  44  97 N5        30.12R
HAYWARD        CLEAR     50  48  93 CALM      30.10R FOG
SIREN          CLEAR     51  50  96 NE3       30.07S
CUMBERLAND     CLEAR     54  52  94 CALM      30.08S
RICE LAKE      CLEAR     53  51  93 CALM      30.10R
CHETEK         CLEAR     55  54  95 E5        30.09S
LADYSMITH      CLEAR     53  52  97 E3        30.12S
EAU CLAIRE     CLEAR     52  50  93 CALM      30.08R FOG
MENOMONIE      CLEAR     57  56  98 CALM      30.09R FOG
NEW RICHMOND   CLEAR     60  55  84 S5        30.07R
OSCEOLA        CLEAR     56  56 100 CALM      30.08R
$$

WIZ003>005-009-010-017-018-281200-
NORTH CENTRAL WISCONSIN

CITY           SKY/WX    TMP DP  RH WIND       PRES   REMARKS
MANITOWISH WTR PTCLDY    45  45 100 CALM      30.12R FOG
ARBOR VITAE    FOG       52  51  95 CALM      30.13R VSB 1
WOODRUFF       FOG       52  51  95 CALM      30.13R VSB 1
RHINELANDER    PTCLDY    47  46  97 CALM      30.15R
EAGLE RIVER    FOG       45  45 100 CALM      30.14R VSB 1/4
LAND O LAKES   FOG       44  44 100 CALM      30.15R VSB<1/4
PHILLIPS       CLEAR     49  48  96 CALM      30.12R
TOMAHAWK       CLEAR     46  45  97 CALM      30.14R FOG
MEDFORD        CLEAR     52  52  98 CALM      30.13R FOG
MERRILL          N/A     48  48 100 CALM      30.15R FOG
$$

WIZ029-030-035-036-043>047-281200-
CENTRAL WISCONSIN

CITY           SKY/WX    TMP DP  RH WIND       PRES   REMARKS
WAUSAU         CLEAR     54  53  97 E5        30.13R
MOSINEE        CLEAR     54  54 100 CALM      30.14R
MARSHFIELD     CLEAR     55  53  93 CALM      30.13R FOG
STEVENS POINT  CLEAR     50  50 100 CALM      30.15R
WAUPACA        CLEAR     55  54  96 CALM      30.14R FOG
WAUTOMA        CLEAR     54  54 100 CALM      30.15R FOG
WISC RAPIDS    CLEAR     53  51  93 CALM      30.15R FOG
CAMP DOUGLAS   CLEAR     57  57 100 CALM      30.13R
$$

WIZ011>013-019>022-031-037>040-048>050-281200-
NORTHEAST WISCONSIN

CITY           SKY/WX    TMP DP  RH WIND       PRES   REMARKS
ANTIGO         CLEAR     48  48 100 CALM      30.15R
SHAWANO        FOG       54  53  95 CALM      30.14R VSB 1/4
OCONTO         PTCLDY    49  49 100 CALM      30.14R
STURGEON BAY   CLEAR     52  48  87 CALM      30.18R
GREEN BAY      CLEAR     58  56  93 SW3       30.15R
MANITOWOC      CLEAR     51  50  96 CALM      30.16R
APPLETON       CLEAR     57  55  94 S6        30.15R
CLINTONVILLE   FOG       52  52 100 CALM      30.14R VSB<1/4
OSHKOSH        CLEAR     61  56  83 S7        30.14R
$$

WIZ032>034-041-042-053>061-281200-
SOUTHWEST WISCONSIN

CITY           SKY/WX    TMP DP  RH WIND       PRES   REMARKS
LA CROSSE      CLEAR     63  59  87 S7        30.11R
SPARTA         CLEAR     50  49  95 CALM      30.14R
VIROQUA        CLEAR     60  56  87 S3        30.15R
BOSCOBEL       FOG       54  53  97 CALM      30.14S VSB<1/4
PRAIRIE DU CHI CLEAR     58  56  93 CALM      30.13F
PLATTEVILLE    CLEAR     61  57  85 S3        30.16S
$$

WIZ056-057-062-063-064-067-068-281200-
SOUTH CENTRAL WISCONSIN

CITY           SKY/WX    TMP DP  RH WIND       PRES   REMARKS
REEDSBURG      CLEAR     60  57  88 CALM      30.14R
BARABOO/DELLS  CLEAR     62  55  78 CALM      30.15R
LONE ROCK      CLEAR     57  55  93 CALM      30.16R
MINERAL POINT  CLEAR     63  55  77 S5        30.17R
MADISON        PTCLDY    60  56  86 CALM      30.15R
MIDDLETON      CLEAR     62  56  81 CALM      30.16R
WATERTOWN      CLEAR    N/A N/A N/A CALM      30.16R FOG
MONROE         CLEAR     61  55  82 SW9       30.17R
JANESVILLE     CLEAR     57  55  94 CALM      30.17R
$$

WIZ051-052-058>065-066-070>072-281200-
SOUTHEAST WISCONSIN

CITY           SKY/WX    TMP DP  RH WIND       PRES   REMARKS
MILWAUKEE      PTCLDY    62  55  77 CALM      30.17R
WAUKESHA       PTCLDY    55  54  94 S3        30.18R
MILWAUKEE/TIMM CLEAR     59  54  82 CALM      30.18R
RACINE         CLEAR     61  54  77 W3        30.19R
BURLINGTON     FOG       52  52  99 CALM      30.17R VSB 1
KENOSHA        CLEAR     56  54  93 SW3       30.17R
FOND DU LAC    CLEAR     62  57  83 SW8       30.15R
SHEBOYGAN      CLEAR     60  57  89 SW7       30.15R
WEST BEND      CLEAR     63  55  77 CALM      30.17R
JUNEAU         CLEAR     58  56  93 SE5       30.18R
$$

LSZ147-162-281200-
LAKE SUPERIOR

STATION/POSITION TIME  TEMP    WIND        PRES    WAVE
                       AIR SEA DIR/SP/G            HT/PER
                 (UTC) (F)     (DEG/KT/KT) (MB)    (FT/S)
W MID LAKE BUOY  1050   39 37   50/ 14/ 16   N/A     3/ 4
DEVILS ISLAND    1100   41      70/ 15/ 18   N/A
PORT WING        1000   42      40/ 16/ 18   N/A
SAXON HARBOR     1000   46        CALM       N/A
$$

LMZ867-665-643>646-281200-
LAKE MICHIGAN

STATION/POSITION TIME  TEMP    WIND        PRES    WAVE
                       AIR SEA DIR/SP/G            HT/PER
                 (UTC) (F)     (DEG/KT/KT) (MB)    (FT/S)
CHAMBERS ISLAND  1000   57     200/  3/  5   N/A
N MID LAKE BUOY  1050   41 36  220/  6/  8   N/A     1/ 4
NORTHPORT PIER   1000   50     160/  2/  3   N/A
SISTER BAY       1018   50        CALM       N/A
ALGOMA LAKESHORE 1038             CALM       N/A
KEWAUNEE LAKESHO 1100   49     190/  4/  5   N/A
SHEBOYGAN LAKESH 1100   62     230/  5/  5   N/A
PORT WASHINGTON  1000   66     260/  7/ 12   N/A
ATWATER BUOY     1100   57 47  300/  2/  2   N/A
MILWAUKEE LAKESH 1100   67     280/  8/  9   N/A
S MID LAKE BUOY  1050   46 38  210/  6/  8   N/A     0
KENOSHA   LAKESH 1100   59      CALM  /  2   N/A
$$

TC  - TEMPERATURE IN CELSIUS
VSB - VISIBILITY IN STATUTE MILES
WCI - WIND CHILL INDEX
HX  - HEAT INDEX



USA.gov is the U.S. government's official web portal to all federal, state and local government web resources and services.